Terminal Aerodrome Forecast
Issued by NWS

Home | Current Version | Previous Version | Graphics & Text | Print | Product List | Glossary On
Versions: 1 2 3 4 5 6 7 8 9 10 11 12 13 14 15 16 17 18 19 20 21 22 23 24 25 26
000
FTUS43 KGRB 242118 AAA
TAFMTW
TAF AMD
KMTW 242118Z 2421/2518 36012G20KT 2SM -FZDZ BR OVC007
     FM250500 35016G25KT 2SM -SN BR OVC012
     FM251200 32017G25KT P6SM -SN SCT015 OVC025 PROB30 2512/2516 3SM
      -SN BKN015
     FM251600 30018G28KT P6SM SCT015 OVC035=

USA.gov is the U.S. government's official web portal to all federal, state and local government web resources and services.